ICO G1

Last updated on Sun Apr 12 2026 00:02:51 GMT+0000 (Coordinated Universal Time)

1 32763U 08016A 26101.35968969 -.00000167 00000+0 00000+0 0 9994 2 32763 5.5169 36.2761 0002667 322.7849 237.1433 1.00272628 65877
UTC large
Height (km)
Speed (km/s)
/
Latitude / Longitude
Inclination (degrees)
Orbital Period (minutes)
Azimuth
Elevation
Range (km)
Doppler Factor

Next 0 passes for location: London (51.5072 / 0.1276)

Sorry there are no passes over London.
ICO G1